Location: Chin
(49.7667°N, 112.4500°W)
Time: 11:27:38
(UTC+00:00)

Envisat - Pass Details

Date: 02 December 2021
Orbit: 764 x 766 km, 98.2° (Epoch: 23 January)

Event Time Altitude Azimuth Distance (km) Brightness Sun altitude
Rises 11:46:11 0° 21° (NNE) 3,246 6.5 -31.5°
Reaches altitude 10° 11:48:46 10° 32° (NNE) 2,315 5.8 -31.1°
Maximum altitude 11:53:15 31° 94° (E) 1,333 4.7 -30.4°
Drops below altitude 10° 11:57:43 10° 156° (SSE) 2,298 5.7 -29.7°
Sets 12:00:16 0° 167° (SSE) 3,219 6.4 -29.3°
